Regional Weather Roundup
Issued by NWS Kansas City/Pleasant Hill, MO

Home | Current Version | Previous Version | Graphics & Text | Print | Product List | Glossary Off
Versions: 1 2 3 4 5 6 7 8 9 10 11 12 13 14 15 16 17 18 19 20 21 22 23 24 25 26 27 28 29 30 31 32 33 34 35 36 37 38 39 40 41 42 43 44 45 46 47 48 49 50

000
ASUS43 KEAX 231110
RWREAX

WEATHER ROUNDUP FOR EASTERN KANSAS AND NORTHWEST MISSOURI
NATIONAL WEATHER SERVICE KANSAS CITY/PLEASANT HILL MO
500 AM CST MON JAN 23 2017

KSZ040-057-103>105-MOZ028-029-037-043-231200-
...KANSAS CITY METROPOLITAN AREA...

CITY           SKY/WX    TMP DP  RH WIND       PRES   REMARKS
K.C. INTL      FOG       30  28  92 NW8       29.90S VSB 1/8 WCI  22
K.C. DOWNTOWN  PTCLDY    31  30  96 W3        29.91R
LEES SUMMIT    CLEAR     31  29  92 W7        29.89S FOG     WCI  24
OLATHE - IXD   CLEAR     29  28  96 NW6       29.90F WCI  23
OLATHE - OJC   CLEAR     30  30 100 NW6       29.89S WCI  24
LAWRENCE       CLEAR     25  25 100 NW3       29.91F FOG

$$

MOZ001>008-011>017-020>025-030>033-038>040-044>046-053-054-231200-
...NORTHERN AND CENTRAL MISSOURI...

CITY           SKY/WX    TMP DP  RH WIND       PRES   REMARKS
ST. JOSEPH     CLOUDY    32  32 100 NW5       29.91S FOG     WCI  27
MOSBY          CLOUDY    32  32 100 NW6       29.90S FOG     WCI  26
WARRENSBURG    CLEAR     32  32 100 W5        29.88S FOG     WCI  27
WHITEMAN AFB   CLOUDY    35  35 100 W6        29.87R WCI  29
CLINTON        CLEAR     32  32 100 W5        29.89S FOG     WCI  27
SEDALIA        CLOUDY    39  36  89 NW8       29.87S WCI  33
WARSAW         NOT AVBL
CHILLICOTHE      N/A     35  34  96 NW9       29.88R WCI  28
KIRKSVILLE     CLOUDY    38  36  92 NW6       29.83R WCI  33

$$

MOZ041-047>049-056>058-063>065-088>090-097-231200-
...EASTERN AND SOUTHERN MISSOURI...

CITY           SKY/WX    TMP DP  RH WIND       PRES   REMARKS
ST. LOUIS INTL CLOUDY    41  35  79 NW15      29.76F WCI  33
SPIRIT OF STL  CLOUDY    41  37  86 N6        29.77F
COLUMBIA       CLOUDY    39  36  89 NW12      29.83R WCI  32
JEFFERSON CITY CLOUDY    40  36  86 NW10      29.84R WCI  33
ROLLA          CLOUDY    38  37  97 NW12      29.80R WCI  30
OSAGE BEACH    CLOUDY    39  36  87 NW3       29.86R
SPRINGFIELD    CLOUDY    38  35  89 NW14      29.85S WCI  30
BRANSON        CLOUDY    37  36  93 NW7       29.86R WCI  32
JOPLIN         CLOUDY    37  36  96 N7        29.89F WCI  32
WEST PLAINS    CLOUDY    40  34  79 N13G24    29.80S WCI  32

$$

IAZ060-094-KSZ022-034>040-054-083-096-NEZ052-066-093-231200-
...KANSAS...SOUTHEAST NEBRASKA AND IOWA...

CITY           SKY/WX    TMP DP  RH WIND       PRES   REMARKS
TOPEKA         CLEAR     28  24  85 CALM      29.91F FOG
MANHATTAN      CLEAR     23  20  88 CALM      29.91F
EMPORIA        CLEAR     27  26  96 W5        29.91S WCI  22
CHANUTE        CLEAR     29  27  92 NW5       29.91F WCI  24
WICHITA        CLEAR     27  26  96 SW3       29.91F
OMAHA          CLOUDY    32  26  78 N10       29.89F WCI  24
LINCOLN        CLOUDY    29  27  92 W3        29.92F
FALLS CITY     CLOUDY    29  28  96 CALM      29.90F
LAMONI         CLOUDY    32  29  88 NW15      29.86R WCI  22
DES MOINES     CLOUDY    33  30  88 NW10      29.86S WCI  25

$$




USA.gov is the U.S. government's official web portal to all federal, state and local government web resources and services.